ZHONGXING-6E

Last updated on Thu Nov 21 2024 00:02:45 GMT+0000 (Coordinated Universal Time)

1 58253U 23172A 24325.56477758 -.00000360 00000+0 00000+0 0 9991 2 58253 0.0183 306.3366 0002706 292.5085 140.0819 1.00272217 3907
UTC large
Height (km)
Speed (km/s)
/
Latitude / Longitude
Inclination (degrees)
Orbital Period (minutes)
Azimuth
Elevation
Range (km)
Doppler Factor

Next 0 passes for location: London (51.5072 / 0.1276)

Sorry there are no passes over London.